SCP
0 0 0 0 0 0 0 1 1 1 2 2 2 3 3 1 0 1 0 0 1 1 1 1 2 2 1 1 0 0 0 0 0 0 0 0 0 0 0 0 1 1 1
0 0 0 0 0 0 0 1 1 1 1 1 1 3 3 1 2 2 2 1 1 1 1 2 1 2 1 1 0 0 0 0 0 0 0 0 0 0 0 0 0 0 0
0 0 0 0 0 0 0 0 0 0 1 1 1 1 1 1 1 2 1 1 1 1 2 2 1 1 0 0 1 1 1 0 0 0 0 0 0 0 0 0 1 1 0
0 0 0 0 0 0 0 0 0 0 0 0 0 1 1 1 1 1 1 1 0 0 0 1 1 1 1 1 1 0 1 1 0 0 0 0 0 0 0 0 1 0 0
0 0 0 0 0 0 0 0 0 1 1 1 1 0 0 0 0 0 1 2 1 1 1 1 1 1 2 1 1 1 1 1 0 0 0 0 0 0 1 0 0 1 1
0 0 0 0 0 0 0 0 1 1 1 1 0 0 1 0 0 1 1 0 0 0 1 2 2 2 2 2 1 1 1 1 1 0 0 0 0 0 0 0 0 0 1
0 0 0 0 0 0 0 0 0 1 1 1 1 1 1 1 0 0 0 0 0 0 1 2 2 1 2 1 1 1 1 1 1 1 0 0 0 0 0 0 0 0 0
0 0 0 0 0 0 0 0 0 0 0 1 1 1 1 0 0 0 0 0 0 0 1 0 0 0 0 1 1 1 1 1 1 1 1 0 0 0 0 0 0 0 0
0 0 0 0 0 0 0 0 0 0 0 0 0 1 1 1 1 1 0 0 0 0 0 0 0 0 0 0 0 0 0 0 0 0 1 1 0 0 0 0 0 0 0
0 0 0 0 0 0 0 0 0 0 0 0 0 0 0 0 1 0 0 0 0 0 0 0 0 0 0 0 0 0 0 0 0 0 0 1 0 0 0 0 0 0 0
0 0 0 0 0 0 0 0 0 0 0 0 0 0 0 0 0 0 0 0 0 0 0 0 0 0 0 0 0 0 0 0 0 0 0 0 1 1 0 0 0 0 0
0 0 0 0 0 0 0 0 0 0 0 0 0 0 0 0 0 0 0 0 0 0 0 0 0 0 0 0 0 0 0 0 0 0 0 0 0 0 0 0 0 0 0
0 0 0 0 0 0 0 0 0 0 0 0 0 0 0 0 0 0 0 0 0 0 0 0 0 0 0 0 0 0 0 0 0 0 0 0 0 0 0 0 0 0 0
0 0 0 0 0 0 0 0 0 0 0 0 0 0 0 0 0 0 0 0 0 0 0 0 0 0 0 0 0 0 0 0 0 0 0 0 0 0 0 0 0 0 0
0 0 0 0 0 0 0 0 0 0 0 0 0 0 0 0 0 0 0 0 0 0 0 0 0 0 0 0 0 0 0 0 0 0 0 0 0 0 0 0 0 0 0
0 0 0 0 0 0 0 0 0 0 0 0 0 0 0 0 0 0 0 0 0 0 0 0 0 0 0 0 0 0 0 0 0 0 0 0 0 0 0 0 -0 0 0
0 0 0 0 0 0 0 0 0 0 0 0 0 0 0 0 0 0 0 0 0 0 0 0 0 0 0 0 0 0 0 0 0 0 0 0 0 0 0 0 0 0 -0
0 0 0 0 0 0 0 0 0 0 0 0 0 0 0 0 0 0 0 0 0 0 0 0 0 0 0 0 0 -0 -0 -0 -0 0 0 0 0 0 0 0 0 0 0
0 0 0 0 0 0 0 0 0 0 0 0 0 0 0 0 -0 -0 -0 0 0 0 0 0 -0 0 0 0 0 0 0 -0 -0 -0 -0 0 0 0 0 0 0 0 0
0 0 0 0 0 0 0 0 0 0 0 0 0 0 0 -0 -0 -0 -0 -0 0 0 0 -0 -0 -0 -0 0 -0 -0 0 -0 0 0 -0 -0 -0 -0 -0 0 0 0 0
0 0 0 0 0 0 0 0 0 0 0 0 0 0 0 -0 -0 -0 -0 -0 -0 -0 -0 -0 -0 -0 -0 -0 -0 -0 -0 -0 0 0 0 0 0 0 0 0 0 0 0
0 0 0 0 0 0 0 0 0 0 0 0 0 0 0 0 0 0 -0 -0 -0 -0 -0 -0 -0 0 -0 -0 -0 -0 -0 -0 0 0 0 0 0 0 0 0 -0 0 0
0 0 0 0 0 0 0 0 0 0 0 0 0 0 0 0 0 0 0 0 0 -0 0 0 0 0 0 0 0 0 -0 -0 0 0 0 0 0 -0 0 0 -0 0 0
0 0 0 0 0 0 0 0 0 0 0 0 0 0 0 0 0 0 0 0 0 0 0 0 0 0 0 0 0 0 0 0 0 0 -0 -0 -0 -0 -0 0 0 0 0
0 0 0 0 0 0 0 0 0 0 0 0 0 0 0 0 0 0 0 0 0 0 0 0 0 0 0 0 0 0 0 0 0 0 0 -0 -0 0 0 0 0 0 0
0 0 0 0 0 0 0 0 0 0 0 0 0 0 0 0 0 0 0 0 0 0 0 -0 -0 -0 -0 0 0 -0 0 0 0 0 0 0 0 0 0 0 0 0 0
Wind_Speed_500mb
15 20 24 26 26 26 26 20 18 16 11 16 15 17 14 21 14 18 26 13 11 14 21 11 16 7 14 21 35 43 42 37 26 29 36 34 35 32 39 46 36 24 23
15 16 18 23 24 25 22 20 22 25 13 15 9 18 23 20 13 2 8 21 25 21 15 22 23 23 29 37 32 44 48 47 30 32 37 42 37 25 24 17 24 33 35
9 12 17 16 21 21 20 22 24 27 25 33 24 24 27 30 31 29 26 18 26 20 19 26 47 56 60 59 50 34 48 55 49 31 28 21 14 41 35 16 20 25 25
7 13 16 16 17 17 19 18 18 21 27 40 39 33 36 34 34 37 44 46 53 33 42 55 51 58 59 53 54 49 40 47 44 33 28 34 37 36 34 38 27 28 23
13 22 25 25 24 28 29 35 29 26 35 34 43 47 45 44 45 43 46 46 54 44 51 50 47 47 54 53 45 50 49 45 48 41 32 35 31 29 33 45 33 24 20
21 24 35 20 36 43 46 28 39 40 36 47 45 50 46 49 50 51 54 60 58 47 40 31 39 45 47 51 53 52 56 52 55 55 40 35 26 31 31 30 29 24 21
33 40 35 46 46 45 45 46 41 53 50 48 44 49 49 46 58 59 56 57 58 51 48 46 44 40 36 39 48 54 56 55 52 53 43 34 33 28 30 28 30 31 31
34 41 47 48 39 40 53 53 49 51 53 49 49 45 56 61 52 51 55 58 59 53 56 60 72 75 65 53 56 59 60 66 66 64 56 53 39 35 30 26 27 33 33
38 44 50 58 59 42 42 47 66 62 59 60 62 56 54 49 45 50 55 60 65 62 70 68 61 66 71 69 64 67 75 75 74 64 59 52 50 35 27 30 28 28 35
44 52 57 52 66 62 59 46 48 51 50 51 48 47 50 49 45 48 57 66 73 80 85 89 94 97 95 88 76 71 68 66 70 74 66 60 50 33 39 32 25 25 34
42 47 53 58 43 37 49 49 49 54 59 59 67 66 64 64 60 61 67 72 74 70 76 73 71 63 62 73 80 76 76 84 81 80 74 65 53 46 41 34 28 31 29
60 62 59 51 55 56 49 55 62 60 59 63 69 70 61 62 74 76 71 71 64 63 69 71 63 59 58 56 56 70 74 72 74 77 79 74 56 50 43 40 37 30 28
58 55 54 56 56 56 66 62 59 60 62 65 58 59 62 68 66 71 73 73 69 73 70 66 65 60 61 57 56 52 59 60 65 73 73 64 56 49 49 39 35 34 29
53 57 63 60 55 63 67 75 71 63 62 62 62 80 88 71 65 71 71 75 68 66 64 60 62 59 57 55 50 55 63 62 61 44 73 53 48 48 44 42 45 40 33
56 68 66 58 62 66 68 67 66 65 72 78 92 80 69 65 62 58 60 59 60 61 61 57 58 60 61 59 51 48 47 55 52 57 54 58 60 55 47 38 41 37 36
62 59 61 59 64 67 65 68 70 96 79 65 64 63 63 62 58 61 56 56 56 53 54 52 54 59 65 63 60 52 53 58 39 51 50 59 53 43 54 65 62 61 40
60 64 58 58 65 62 61 79 91 74 67 65 64 62 58 56 55 54 55 56 51 51 53 54 52 52 52 52 49 49 46 49 52 41 42 44 48 59 53 50 53 60 65
62 53 55 63 59 59 78 87 70 63 66 64 59 55 54 55 55 53 53 50 51 48 49 50 51 53 49 46 45 42 44 45 49 49 45 39 44 46 45 39 49 56 47
51 51 55 58 56 70 79 69 61 63 67 63 62 59 54 56 53 49 45 43 47 49 53 55 49 42 38 34 31 34 38 43 47 52 53 44 45 39 45 42 41 32 30
51 57 56 50 58 69 72 62 63 67 67 63 59 56 48 48 46 40 41 43 47 51 47 44 43 37 34 31 31 31 37 39 40 36 36 39 43 43 49 44 48 40 34
56 58 53 43 59 70 68 63 63 66 62 55 50 48 45 42 41 45 45 45 46 44 46 44 41 40 36 36 33 34 39 41 40 40 38 35 33 41 44 45 38 37 31
57 59 50 57 67 68 69 64 62 62 57 48 46 52 47 42 39 38 34 35 43 42 35 30 26 23 22 25 33 45 44 35 37 33 28 33 32 34 41 43 39 27 37
61 55 49 65 67 68 67 63 58 59 52 42 50 54 46 43 46 39 37 34 33 27 25 21 20 17 16 19 21 26 34 40 46 40 38 34 33 33 29 36 37 32 42
58 57 49 69 72 68 62 54 50 55 49 45 54 59 54 63 45 36 31 30 31 23 16 16 16 14 10 8 9 12 24 39 39 44 42 35 36 38 36 29 37 46 50
53 52 56 67 68 61 55 50 42 49 47 45 51 53 53 60 44 37 31 27 30 28 23 15 12 9 10 13 9 8 12 26 39 36 35 40 42 46 45 55 61 61 62
47 49 63 64 57 54 53 47 37 41 42 41 48 55 60 51 45 42 36 38 50 40 26 25 15 7 9 14 16 23 23 33 38 41 45 48 51 69 63 67 62 64 73
Wind_Direction_500mb
55 38 31 27 28 35 31 33 18 355 22 346 303 306 282 272 257 241 249 242 234 233 273 257 238 290 308 299 322 320 323 320 328 313 313 303 304 289 300 289 286 275 276
60 35 31 25 26 19 18 358 355 338 325 304 291 325 305 287 302 232 248 258 298 291 276 263 278 297 305 303 305 304 306 304 316 302 296 304 303 296 303 334 267 292 288
4 7 3 22 8 4 358 350 352 346 355 330 320 293 278 273 281 274 272 248 235 228 253 292 301 300 303 301 295 290 296 299 297 297 293 302 298 311 283 302 341 312 318
331 330 331 337 338 326 322 336 335 340 336 327 323 321 315 308 302 295 293 281 290 293 288 287 278 294 295 291 281 267 280 285 277 290 272 268 278 284 302 302 323 322 327
319 322 307 306 309 306 307 308 305 315 313 298 310 306 300 295 284 277 274 280 278 285 283 277 286 284 280 277 278 275 264 265 268 274 277 275 269 270 279 290 301 311 296
297 297 298 310 309 310 311 314 323 316 309 313 309 302 297 299 297 293 288 282 289 292 285 279 279 273 279 269 262 264 264 260 265 271 251 251 259 275 282 298 301 303 307
306 306 314 316 324 325 322 319 304 307 303 303 295 291 294 295 295 296 294 289 284 282 283 271 269 263 278 282 265 259 254 251 256 264 256 250 251 255 270 283 292 296 290
312 314 311 316 317 312 311 307 310 306 304 305 301 290 294 295 291 292 289 286 284 281 273 273 271 273 277 281 275 268 262 255 247 246 249 250 244 245 250 266 284 299 296
353 335 323 314 310 319 323 320 322 306 294 301 297 293 294 292 287 287 285 284 280 277 274 270 270 270 268 271 270 268 265 259 251 243 242 244 248 239 242 250 253 269 293
332 323 315 313 316 303 311 314 305 316 320 320 314 312 306 299 293 284 283 285 290 285 279 276 276 275 274 274 266 264 266 262 255 246 240 234 246 228 232 248 247 257 273
311 301 315 322 332 332 327 325 329 323 319 314 307 307 303 291 284 288 290 289 295 287 282 282 283 283 279 271 266 263 267 267 261 251 241 236 229 234 231 241 248 248 255
324 319 324 336 342 339 345 337 330 323 316 308 307 306 300 298 294 297 292 290 285 283 285 289 284 278 276 273 272 266 264 268 262 252 243 235 233 235 248 250 256 262 263
322 334 338 337 333 341 340 336 329 319 309 310 306 300 293 293 290 288 290 287 286 286 285 283 280 282 279 277 274 269 272 272 261 249 233 233 224 240 236 241 251 252 254
341 331 336 336 339 335 332 329 324 319 312 305 299 301 303 301 291 287 284 283 285 283 285 284 279 278 274 269 271 265 264 269 266 246 230 229 226 235 236 252 261 268 274
340 336 332 338 335 333 330 327 319 312 309 299 298 305 306 304 302 299 295 288 284 282 282 279 274 274 273 274 265 272 267 269 268 263 241 231 227 239 235 244 261 263 263
327 330 335 339 338 333 327 319 310 315 318 317 312 312 309 308 304 304 299 295 292 289 292 287 283 277 273 274 257 253 259 262 266 255 256 237 240 238 241 241 252 255 255
337 337 338 340 335 330 321 319 320 323 323 318 315 316 312 309 307 307 306 300 299 293 293 290 289 283 283 278 268 253 259 257 247 254 241 234 238 247 241 244 253 255 243
339 341 341 336 333 322 324 325 326 327 326 326 323 321 317 317 310 308 306 303 300 295 297 294 292 290 285 281 271 252 252 250 249 247 245 247 243 227 225 238 243 259 249
343 341 337 334 320 327 331 329 330 332 332 329 327 323 316 317 311 310 308 302 301 298 298 298 297 290 281 286 267 248 252 249 249 249 251 243 238 228 227 241 254 239 233
344 342 337 325 324 336 334 334 335 335 336 333 329 328 324 321 317 316 312 308 303 300 301 297 293 293 280 270 265 246 240 243 243 244 244 236 236 235 226 235 243 228 225
340 337 336 331 335 335 339 337 335 340 338 336 340 339 336 331 322 313 307 306 304 300 299 296 295 287 273 261 250 244 240 241 240 239 238 227 217 211 214 216 228 221 222
340 337 330 324 334 338 341 339 338 342 343 343 345 341 340 337 333 328 324 318 315 308 305 303 301 295 287 268 250 241 237 231 224 221 216 214 205 203 217 226 205 220 207
335 332 322 329 336 339 339 338 341 346 348 346 347 353 356 354 345 334 331 327 333 324 321 313 314 314 298 279 253 235 229 221 216 212 206 203 187 191 196 196 194 214 207
334 328 327 333 334 336 337 342 341 345 348 345 352 355 359 354 356 353 347 346 354 1 342 338 331 330 333 314 283 224 218 215 210 215 217 208 196 195 185 186 190 193 178
331 332 331 330 333 337 341 346 345 346 352 353 2 358 355 355 4 9 6 12 19 26 8 10 6 28 34 29 54 148 160 177 191 199 188 182 178 179 172 171 179 171 163
336 331 332 335 338 341 343 348 349 348 354 4 3 358 353 6 16 26 39 49 48 42 21 14 29 40 78 59 64 127 138 145 157 165 160 163 154 158 163 167 165 159 154
Wind_Speed_850mb
15 20 24 26 26 26 26 20 18 16 11 16 15 17 14 21 14 18 26 13 11 14 21 11 16 7 14 21 35 43 42 37 26 29 36 34 35 32 39 46 36 24 23
15 16 18 23 24 25 22 20 22 25 13 15 9 18 23 20 13 2 8 21 25 21 15 22 23 23 29 37 32 44 48 47 30 32 37 42 37 25 24 17 24 33 35
9 12 17 16 21 21 20 22 24 27 25 33 24 24 27 30 31 29 26 18 26 20 19 26 47 56 60 59 50 34 48 55 49 31 28 21 14 41 35 16 20 25 25
7 13 16 16 17 17 19 18 18 21 27 40 39 33 36 34 34 37 44 46 53 33 42 55 51 58 59 53 54 49 40 47 44 33 28 34 37 36 34 38 27 28 23
13 22 25 25 24 28 29 35 29 26 35 34 43 47 45 44 45 43 46 46 54 44 51 50 47 47 54 53 45 50 49 45 48 41 32 35 31 29 33 45 33 24 20
21 24 35 20 36 43 46 28 39 40 36 47 45 50 46 49 50 51 54 60 58 47 40 31 39 45 47 51 53 52 56 52 55 55 40 35 26 31 31 30 29 24 21
33 40 35 46 46 45 45 46 41 53 50 48 44 49 49 46 58 59 56 57 58 51 48 46 44 40 36 39 48 54 56 55 52 53 43 34 33 28 30 28 30 31 31
34 41 47 48 39 40 53 53 49 51 53 49 49 45 56 61 52 51 55 58 59 53 56 60 72 75 65 53 56 59 60 66 66 64 56 53 39 35 30 26 27 33 33
38 44 50 58 59 42 42 47 66 62 59 60 62 56 54 49 45 50 55 60 65 62 70 68 61 66 71 69 64 67 75 75 74 64 59 52 50 35 27 30 28 28 35
44 52 57 52 66 62 59 46 48 51 50 51 48 47 50 49 45 48 57 66 73 80 85 89 94 97 95 88 76 71 68 66 70 74 66 60 50 33 39 32 25 25 34
42 47 53 58 43 37 49 49 49 54 59 59 67 66 64 64 60 61 67 72 74 70 76 73 71 63 62 73 80 76 76 84 81 80 74 65 53 46 41 34 28 31 29
60 62 59 51 55 56 49 55 62 60 59 63 69 70 61 62 74 76 71 71 64 63 69 71 63 59 58 56 56 70 74 72 74 77 79 74 56 50 43 40 37 30 28
58 55 54 56 56 56 66 62 59 60 62 65 58 59 62 68 66 71 73 73 69 73 70 66 65 60 61 57 56 52 59 60 65 73 73 64 56 49 49 39 35 34 29
53 57 63 60 55 63 67 75 71 63 62 62 62 80 88 71 65 71 71 75 68 66 64 60 62 59 57 55 50 55 63 62 61 44 73 53 48 48 44 42 45 40 33
56 68 66 58 62 66 68 67 66 65 72 78 92 80 69 65 62 58 60 59 60 61 61 57 58 60 61 59 51 48 47 55 52 57 54 58 60 55 47 38 41 37 36
62 59 61 59 64 67 65 68 70 96 79 65 64 63 63 62 58 61 56 56 56 53 54 52 54 59 65 63 60 52 53 58 39 51 50 59 53 43 54 65 62 61 40
60 64 58 58 65 62 61 79 91 74 67 65 64 62 58 56 55 54 55 56 51 51 53 54 52 52 52 52 49 49 46 49 52 41 42 44 48 59 53 50 53 60 65
62 53 55 63 59 59 78 87 70 63 66 64 59 55 54 55 55 53 53 50 51 48 49 50 51 53 49 46 45 42 44 45 49 49 45 39 44 46 45 39 49 56 47
51 51 55 58 56 70 79 69 61 63 67 63 62 59 54 56 53 49 45 43 47 49 53 55 49 42 38 34 31 34 38 43 47 52 53 44 45 39 45 42 41 32 30
51 57 56 50 58 69 72 62 63 67 67 63 59 56 48 48 46 40 41 43 47 51 47 44 43 37 34 31 31 31 37 39 40 36 36 39 43 43 49 44 48 40 34
56 58 53 43 59 70 68 63 63 66 62 55 50 48 45 42 41 45 45 45 46 44 46 44 41 40 36 36 33 34 39 41 40 40 38 35 33 41 44 45 38 37 31
57 59 50 57 67 68 69 64 62 62 57 48 46 52 47 42 39 38 34 35 43 42 35 30 26 23 22 25 33 45 44 35 37 33 28 33 32 34 41 43 39 27 37
61 55 49 65 67 68 67 63 58 59 52 42 50 54 46 43 46 39 37 34 33 27 25 21 20 17 16 19 21 26 34 40 46 40 38 34 33 33 29 36 37 32 42
58 57 49 69 72 68 62 54 50 55 49 45 54 59 54 63 45 36 31 30 31 23 16 16 16 14 10 8 9 12 24 39 39 44 42 35 36 38 36 29 37 46 50
53 52 56 67 68 61 55 50 42 49 47 45 51 53 53 60 44 37 31 27 30 28 23 15 12 9 10 13 9 8 12 26 39 36 35 40 42 46 45 55 61 61 62
47 49 63 64 57 54 53 47 37 41 42 41 48 55 60 51 45 42 36 38 50 40 26 25 15 7 9 14 16 23 23 33 38 41 45 48 51 69 63 67 62 64 73
Wind_Direction_850mb
55 38 31 27 28 35 31 33 18 355 22 346 303 306 282 272 257 241 249 242 234 233 273 257 238 290 308 299 322 320 323 320 328 313 313 303 304 289 300 289 286 275 276
60 35 31 25 26 19 18 358 355 338 325 304 291 325 305 287 302 232 248 258 298 291 276 263 278 297 305 303 305 304 306 304 316 302 296 304 303 296 303 334 267 292 288
4 7 3 22 8 4 358 350 352 346 355 330 320 293 278 273 281 274 272 248 235 228 253 292 301 300 303 301 295 290 296 299 297 297 293 302 298 311 283 302 341 312 318
331 330 331 337 338 326 322 336 335 340 336 327 323 321 315 308 302 295 293 281 290 293 288 287 278 294 295 291 281 267 280 285 277 290 272 268 278 284 302 302 323 322 327
319 322 307 306 309 306 307 308 305 315 313 298 310 306 300 295 284 277 274 280 278 285 283 277 286 284 280 277 278 275 264 265 268 274 277 275 269 270 279 290 301 311 296
297 297 298 310 309 310 311 314 323 316 309 313 309 302 297 299 297 293 288 282 289 292 285 279 279 273 279 269 262 264 264 260 265 271 251 251 259 275 282 298 301 303 307
306 306 314 316 324 325 322 319 304 307 303 303 295 291 294 295 295 296 294 289 284 282 283 271 269 263 278 282 265 259 254 251 256 264 256 250 251 255 270 283 292 296 290
312 314 311 316 317 312 311 307 310 306 304 305 301 290 294 295 291 292 289 286 284 281 273 273 271 273 277 281 275 268 262 255 247 246 249 250 244 245 250 266 284 299 296
353 335 323 314 310 319 323 320 322 306 294 301 297 293 294 292 287 287 285 284 280 277 274 270 270 270 268 271 270 268 265 259 251 243 242 244 248 239 242 250 253 269 293
332 323 315 313 316 303 311 314 305 316 320 320 314 312 306 299 293 284 283 285 290 285 279 276 276 275 274 274 266 264 266 262 255 246 240 234 246 228 232 248 247 257 273
311 301 315 322 332 332 327 325 329 323 319 314 307 307 303 291 284 288 290 289 295 287 282 282 283 283 279 271 266 263 267 267 261 251 241 236 229 234 231 241 248 248 255
324 319 324 336 342 339 345 337 330 323 316 308 307 306 300 298 294 297 292 290 285 283 285 289 284 278 276 273 272 266 264 268 262 252 243 235 233 235 248 250 256 262 263
322 334 338 337 333 341 340 336 329 319 309 310 306 300 293 293 290 288 290 287 286 286 285 283 280 282 279 277 274 269 272 272 261 249 233 233 224 240 236 241 251 252 254
341 331 336 336 339 335 332 329 324 319 312 305 299 301 303 301 291 287 284 283 285 283 285 284 279 278 274 269 271 265 264 269 266 246 230 229 226 235 236 252 261 268 274
340 336 332 338 335 333 330 327 319 312 309 299 298 305 306 304 302 299 295 288 284 282 282 279 274 274 273 274 265 272 267 269 268 263 241 231 227 239 235 244 261 263 263
327 330 335 339 338 333 327 319 310 315 318 317 312 312 309 308 304 304 299 295 292 289 292 287 283 277 273 274 257 253 259 262 266 255 256 237 240 238 241 241 252 255 255
337 337 338 340 335 330 321 319 320 323 323 318 315 316 312 309 307 307 306 300 299 293 293 290 289 283 283 278 268 253 259 257 247 254 241 234 238 247 241 244 253 255 243
339 341 341 336 333 322 324 325 326 327 326 326 323 321 317 317 310 308 306 303 300 295 297 294 292 290 285 281 271 252 252 250 249 247 245 247 243 227 225 238 243 259 249
343 341 337 334 320 327 331 329 330 332 332 329 327 323 316 317 311 310 308 302 301 298 298 298 297 290 281 286 267 248 252 249 249 249 251 243 238 228 227 241 254 239 233
344 342 337 325 324 336 334 334 335 335 336 333 329 328 324 321 317 316 312 308 303 300 301 297 293 293 280 270 265 246 240 243 243 244 244 236 236 235 226 235 243 228 225
340 337 336 331 335 335 339 337 335 340 338 336 340 339 336 331 322 313 307 306 304 300 299 296 295 287 273 261 250 244 240 241 240 239 238 227 217 211 214 216 228 221 222
340 337 330 324 334 338 341 339 338 342 343 343 345 341 340 337 333 328 324 318 315 308 305 303 301 295 287 268 250 241 237 231 224 221 216 214 205 203 217 226 205 220 207
335 332 322 329 336 339 339 338 341 346 348 346 347 353 356 354 345 334 331 327 333 324 321 313 314 314 298 279 253 235 229 221 216 212 206 203 187 191 196 196 194 214 207
334 328 327 333 334 336 337 342 341 345 348 345 352 355 359 354 356 353 347 346 354 1 342 338 331 330 333 314 283 224 218 215 210 215 217 208 196 195 185 186 190 193 178
331 332 331 330 333 337 341 346 345 346 352 353 2 358 355 355 4 9 6 12 19 26 8 10 6 28 34 29 54 148 160 177 191 199 188 182 178 179 172 171 179 171 163
336 331 332 335 338 341 343 348 349 348 354 4 3 358 353 6 16 26 39 49 48 42 21 14 29 40 78 59 64 127 138 145 157 165 160 163 154 158 163 167 165 159 154